SCP
0 0 0 0 0 0 0 0 0 0 0 0 0 0 0 0 0 0 0 0 0 -0 -0 -0 -0 -0 -0 -0 -0 -0 -0 -0
0 0 0 0 0 0 0 0 0 0 0 0 0 0 0 0 0 -0 -0 -0 -0 0 -0 0 -0 -0 -0 -0 -0 -0 -0 -0
0 0 0 0 0 0 0 0 0 0 0 0 0 0 0 -0 -0 -0 -0 0 -0 0 -0 -0 -0 -0 -0 -0 -0 -0 -0 -0
0 0 0 0 0 0 0 0 0 0 0 -0 -0 0 0 0 0 0 -0 -0 0 -0 0 -0 -0 -0 -0 -0 -0 -0 -0 -0
0 0 0 0 0 0 0 0 0 0 0 0 0 0 0 0 0 0 0 -0 -0 -0 -0 -0 -0 0 -0 -0 -0 -1 -0 -0
0 0 0 0 0 0 0 0 0 0 0 0 0 0 0 0 0 -0 0 0 -0 -0 0 0 0 0 0 -0 -0 -0 -1 -1
0 0 0 0 0 0 0 0 0 0 0 0 0 0 0 0 0 0 -0 0 0 0 0 0 0 0 0 0 -0 -0 -0 -1
0 0 0 0 0 0 0 0 0 0 0 0 0 0 0 0 -0 0 0 0 0 0 0 0 -0 0 -0 -0 -0 -0 -0 -0
0 0 0 0 0 0 0 0 0 0 0 0 0 0 0 0 0 0 0 0 0 -0 -0 0 0 0 0 0 0 0 0 0
0 0 0 0 0 0 0 0 0 0 0 0 0 0 0 0 -0 0 0 0 0 0 -0 0 0 1 1 1 0 0 0 0
0 0 0 0 0 0 0 0 0 0 0 0 0 0 0 0 0 0 0 0 0 0 -0 0 -0 0 1 1 1 0 0 0
0 0 0 0 0 0 0 0 0 0 0 0 0 0 0 0 0 0 0 0 0 -0 0 0 1 1 1 1 1 1 1 1
0 0 0 0 0 0 0 0 0 0 0 0 0 0 0 0 0 0 0 0 -1 -0 -0 -0 0 1 1 2 1 1 1 1
0 0 0 0 0 0 0 0 0 0 0 0 0 0 0 0 0 0 0 0 0 0 1 -0 1 1 2 2 2 2 1 1
0 0 0 0 0 0 0 0 0 0 0 0 0 0 0 0 -0 0 0 0 0 1 2 2 2 2 3 3 3 3 1 1
0 0 0 0 0 0 0 0 0 0 0 0 0 0 0 0 0 0 0 0 1 2 2 2 2 2 2 5 4 3 2 1
0 0 0 0 0 -0 -0 0 0 0 0 0 0 0 0 0 0 0 0 0 0 2 2 2 3 2 1 1 1 4 2 2
0 0 0 0 0 -0 0 0 0 0 -0 0 -0 -0 0 0 0 0 0 0 0 1 2 2 2 2 1 0 0 0 0 0
0 0 -0 0 0 0 -0 0 0 0 -0 -0 0 -0 0 0 0 0 0 0 0 0 2 2 2 1 0 0 -0 0 0 0
Wind_Speed_500mb
8 4 17 6 6 8 13 8 5 7 16 22 8 12 14 22 19 18 26 39 42 53 51 54 62 59 57 58 58 57 51 54
11 3 7 9 13 6 5 9 7 9 11 12 20 15 13 15 26 25 26 38 49 55 57 56 57 52 54 59 58 56 57 58
4 8 14 2 1 12 8 8 11 5 12 16 21 15 13 21 34 46 40 45 55 63 59 56 54 53 54 58 63 61 58 58
23 6 4 4 12 12 10 7 3 6 13 4 14 18 25 48 56 31 51 54 57 67 63 57 56 51 49 52 57 62 58 55
17 11 6 3 5 11 10 7 10 10 11 4 19 22 32 38 51 37 31 39 53 63 70 66 62 57 51 53 51 54 53 46
11 11 7 5 3 8 8 7 9 11 12 20 19 23 36 50 47 48 43 31 47 61 71 74 67 57 54 51 48 45 41 34
10 11 6 4 9 8 11 10 12 11 15 15 17 17 34 53 40 36 41 54 44 56 68 77 73 58 49 52 47 44 35 30
7 5 5 9 15 15 10 7 10 8 14 13 30 34 28 55 45 30 29 43 33 38 52 56 69 60 54 56 50 44 36 33
9 4 13 12 12 16 8 3 9 10 13 6 16 31 36 61 59 49 30 34 43 52 50 50 54 49 54 54 47 44 41 40
9 3 10 12 8 12 12 10 12 6 10 8 21 46 65 24 32 52 45 38 41 49 45 34 40 43 52 49 45 45 47 46
7 9 8 4 8 10 12 17 11 10 1 13 43 52 37 13 48 66 59 49 45 50 52 34 45 46 48 46 48 48 51 50
6 8 13 14 5 7 6 15 11 8 6 10 24 11 16 42 76 75 64 50 51 39 54 52 48 41 53 51 48 51 54 49
8 8 12 14 10 5 7 12 11 9 16 20 8 24 64 69 66 69 65 44 48 45 51 47 39 42 47 51 54 48 47 43
6 5 12 16 9 11 12 12 22 36 44 39 46 54 62 62 52 52 58 42 38 36 40 49 44 47 50 53 54 46 43 38
17 13 8 22 15 28 28 36 53 48 43 37 43 60 64 62 45 31 42 40 32 31 29 30 31 43 54 61 59 52 45 40
3 10 17 27 30 45 50 51 47 34 45 42 48 51 54 52 35 19 21 27 28 27 31 29 31 38 45 57 61 49 47 45
9 16 30 31 32 29 39 28 29 37 27 26 31 40 41 38 30 19 10 12 14 22 28 33 32 35 37 47 46 44 45 41
11 23 15 33 30 36 39 31 36 31 31 26 28 43 40 40 34 32 18 20 36 39 47 46 42 37 22 1 14 13 30 35
29 52 49 46 51 43 23 19 25 25 25 28 31 31 30 39 34 28 32 26 23 38 37 37 37 38 31 5 26 11 12 19
Wind_Direction_500mb
236 150 132 175 159 185 104 16 60 259 294 306 344 334 343 332 300 284 238 212 205 211 219 220 220 222 227 230 231 233 236 241
286 76 47 168 159 77 11 169 219 290 285 236 301 308 301 276 260 247 237 220 207 209 218 224 223 224 232 236 239 240 241 241
81 210 192 37 213 48 119 125 164 200 266 220 247 259 268 283 269 260 222 226 207 204 213 225 229 224 231 238 242 242 244 247
220 228 167 142 175 151 130 216 124 158 269 268 300 316 311 297 293 261 241 224 223 213 209 218 232 228 233 239 244 246 246 251
343 7 14 145 163 91 98 78 186 140 263 58 1 326 337 299 295 270 228 224 224 221 217 217 226 233 237 244 247 248 247 249
199 228 185 138 110 125 129 109 174 225 279 315 331 327 329 318 301 295 272 236 231 225 222 220 223 224 237 247 251 247 241 245
224 242 303 268 216 202 189 186 161 235 205 265 282 298 303 317 311 304 271 248 255 245 237 224 221 221 234 244 244 240 233 235
285 247 229 254 247 245 238 188 249 247 266 216 305 313 306 325 330 313 295 262 247 250 235 222 223 216 222 234 237 227 216 221
264 316 313 308 217 200 200 184 172 188 235 351 317 320 325 316 322 315 294 306 260 247 230 222 214 227 218 228 234 223 217 209
222 20 248 247 280 222 195 208 214 256 251 313 300 309 311 327 13 346 324 304 257 229 222 201 226 231 218 219 224 217 214 212
182 199 287 238 211 152 179 252 206 232 29 329 335 329 312 295 328 326 326 293 269 255 244 240 222 231 205 212 212 216 214 216
140 190 220 237 160 91 119 269 251 143 272 318 341 335 285 303 320 318 326 307 278 279 247 250 246 221 212 208 209 214 215 217
173 217 283 248 202 123 146 265 177 285 275 278 233 250 294 305 315 314 324 297 268 269 255 254 251 223 210 202 209 212 213 215
104 144 273 182 122 171 221 219 277 293 298 274 281 288 290 302 313 315 311 284 259 259 247 251 255 227 211 203 201 197 201 206
179 208 233 188 229 274 275 286 295 301 299 294 285 287 292 298 307 298 292 276 258 239 229 225 231 223 214 196 187 186 193 187
117 255 243 269 289 294 303 293 295 291 294 293 290 294 290 293 289 257 257 260 248 236 218 215 213 212 208 194 185 188 191 194
264 284 285 290 305 323 321 296 291 304 298 308 314 303 295 286 262 236 172 198 213 199 166 169 173 178 189 204 204 196 196 205
230 234 247 284 307 318 310 287 295 294 296 296 307 321 291 277 254 233 165 132 140 146 136 126 133 143 141 161 246 253 248 240
251 275 288 295 296 304 316 308 311 304 310 323 305 326 302 261 240 226 233 195 138 128 135 151 126 101 94 245 316 290 279 238
Wind_Speed_850mb
8 4 17 6 6 8 13 8 5 7 16 22 8 12 14 22 19 18 26 39 42 53 51 54 62 59 57 58 58 57 51 54
11 3 7 9 13 6 5 9 7 9 11 12 20 15 13 15 26 25 26 38 49 55 57 56 57 52 54 59 58 56 57 58
4 8 14 2 1 12 8 8 11 5 12 16 21 15 13 21 34 46 40 45 55 63 59 56 54 53 54 58 63 61 58 58
23 6 4 4 12 12 10 7 3 6 13 4 14 18 25 48 56 31 51 54 57 67 63 57 56 51 49 52 57 62 58 55
17 11 6 3 5 11 10 7 10 10 11 4 19 22 32 38 51 37 31 39 53 63 70 66 62 57 51 53 51 54 53 46
11 11 7 5 3 8 8 7 9 11 12 20 19 23 36 50 47 48 43 31 47 61 71 74 67 57 54 51 48 45 41 34
10 11 6 4 9 8 11 10 12 11 15 15 17 17 34 53 40 36 41 54 44 56 68 77 73 58 49 52 47 44 35 30
7 5 5 9 15 15 10 7 10 8 14 13 30 34 28 55 45 30 29 43 33 38 52 56 69 60 54 56 50 44 36 33
9 4 13 12 12 16 8 3 9 10 13 6 16 31 36 61 59 49 30 34 43 52 50 50 54 49 54 54 47 44 41 40
9 3 10 12 8 12 12 10 12 6 10 8 21 46 65 24 32 52 45 38 41 49 45 34 40 43 52 49 45 45 47 46
7 9 8 4 8 10 12 17 11 10 1 13 43 52 37 13 48 66 59 49 45 50 52 34 45 46 48 46 48 48 51 50
6 8 13 14 5 7 6 15 11 8 6 10 24 11 16 42 76 75 64 50 51 39 54 52 48 41 53 51 48 51 54 49
8 8 12 14 10 5 7 12 11 9 16 20 8 24 64 69 66 69 65 44 48 45 51 47 39 42 47 51 54 48 47 43
6 5 12 16 9 11 12 12 22 36 44 39 46 54 62 62 52 52 58 42 38 36 40 49 44 47 50 53 54 46 43 38
17 13 8 22 15 28 28 36 53 48 43 37 43 60 64 62 45 31 42 40 32 31 29 30 31 43 54 61 59 52 45 40
3 10 17 27 30 45 50 51 47 34 45 42 48 51 54 52 35 19 21 27 28 27 31 29 31 38 45 57 61 49 47 45
9 16 30 31 32 29 39 28 29 37 27 26 31 40 41 38 30 19 10 12 14 22 28 33 32 35 37 47 46 44 45 41
11 23 15 33 30 36 39 31 36 31 31 26 28 43 40 40 34 32 18 20 36 39 47 46 42 37 22 1 14 13 30 35
29 52 49 46 51 43 23 19 25 25 25 28 31 31 30 39 34 28 32 26 23 38 37 37 37 38 31 5 26 11 12 19
Wind_Direction_850mb
236 150 132 175 159 185 104 16 60 259 294 306 344 334 343 332 300 284 238 212 205 211 219 220 220 222 227 230 231 233 236 241
286 76 47 168 159 77 11 169 219 290 285 236 301 308 301 276 260 247 237 220 207 209 218 224 223 224 232 236 239 240 241 241
81 210 192 37 213 48 119 125 164 200 266 220 247 259 268 283 269 260 222 226 207 204 213 225 229 224 231 238 242 242 244 247
220 228 167 142 175 151 130 216 124 158 269 268 300 316 311 297 293 261 241 224 223 213 209 218 232 228 233 239 244 246 246 251
343 7 14 145 163 91 98 78 186 140 263 58 1 326 337 299 295 270 228 224 224 221 217 217 226 233 237 244 247 248 247 249
199 228 185 138 110 125 129 109 174 225 279 315 331 327 329 318 301 295 272 236 231 225 222 220 223 224 237 247 251 247 241 245
224 242 303 268 216 202 189 186 161 235 205 265 282 298 303 317 311 304 271 248 255 245 237 224 221 221 234 244 244 240 233 235
285 247 229 254 247 245 238 188 249 247 266 216 305 313 306 325 330 313 295 262 247 250 235 222 223 216 222 234 237 227 216 221
264 316 313 308 217 200 200 184 172 188 235 351 317 320 325 316 322 315 294 306 260 247 230 222 214 227 218 228 234 223 217 209
222 20 248 247 280 222 195 208 214 256 251 313 300 309 311 327 13 346 324 304 257 229 222 201 226 231 218 219 224 217 214 212
182 199 287 238 211 152 179 252 206 232 29 329 335 329 312 295 328 326 326 293 269 255 244 240 222 231 205 212 212 216 214 216
140 190 220 237 160 91 119 269 251 143 272 318 341 335 285 303 320 318 326 307 278 279 247 250 246 221 212 208 209 214 215 217
173 217 283 248 202 123 146 265 177 285 275 278 233 250 294 305 315 314 324 297 268 269 255 254 251 223 210 202 209 212 213 215
104 144 273 182 122 171 221 219 277 293 298 274 281 288 290 302 313 315 311 284 259 259 247 251 255 227 211 203 201 197 201 206
179 208 233 188 229 274 275 286 295 301 299 294 285 287 292 298 307 298 292 276 258 239 229 225 231 223 214 196 187 186 193 187
117 255 243 269 289 294 303 293 295 291 294 293 290 294 290 293 289 257 257 260 248 236 218 215 213 212 208 194 185 188 191 194
264 284 285 290 305 323 321 296 291 304 298 308 314 303 295 286 262 236 172 198 213 199 166 169 173 178 189 204 204 196 196 205
230 234 247 284 307 318 310 287 295 294 296 296 307 321 291 277 254 233 165 132 140 146 136 126 133 143 141 161 246 253 248 240
251 275 288 295 296 304 316 308 311 304 310 323 305 326 302 261 240 226 233 195 138 128 135 151 126 101 94 245 316 290 279 238